Location: Newark
(48.6461°N, 4.3644°W)
Time: 08:48:39
(UTC+00:00)

Altair - Pass Details

Date: 23 January 2021
Orbit: 1501 x 1682 km, 47.2° (Epoch: 24 February)

Event Time Altitude Azimuth Distance (km) Brightness Sun altitude
Exits shadow 03:27:56 11° 156° (SSE) 3,772 9.5 -43.8°
Maximum altitude 03:32:45 17° 125° (SE) 3,416 9.5 -43.1°
Drops below altitude 10° 03:38:20 10° 90° (E) 3,941 10.2 -42.2°
Sets 03:43:05 0° 72° (ENE) 4,940 11.0 -41.5°
